Location: Bottenau
(48.5138°N, 8.0462°E)
Time: 05:07:41
(UTC+00:00)

Cosmos-2242 - Pass Details

Date: 18 April 2021
Orbit: 589 x 618 km, 82.5° (Epoch: 09 May)

Event Time Altitude Azimuth Distance (km) Brightness Sun altitude
Exits shadow 20:25:50 40° 135° (SE) 901 3.4 -18.2°
Maximum altitude 20:26:50 49° 94° (E) 789 3.2 -18.3°
Drops below altitude 10° 20:31:01 10° 20° (NNE) 1,959 5.9 -18.8°
Sets 20:33:17 0° 15° (NNE) 2,862 6.9 -19.1°
